| time (UTC) | temp F | wind direction | speed knots | gust knots | rain 1hr in | rain 24hr in | rain mn in | humidity % | barometer mb |
| 20260906124007 | 72 | 51 | 0.0 | 0.9 | 0.00 | 0.00 | 0.00 | 91 | 1017.6 |
| 20260906123506 | 72 | 51 | 0.0 | 1.7 | 0.00 | 0.00 | 0.00 | 91 | 1017.5 |
| 20260906123007 | 71 | 51 | 0.9 | 1.7 | 0.00 | 0.00 | 0.00 | 92 | 1017.4 |
| 20260906122506 | 71 | 51 | 0.0 | 0.9 | 0.00 | 0.00 | 0.00 | 92 | 1017.2 |
| 20260906122006 | 71 | 51 | 0.0 | 0.9 | 0.00 | 0.00 | 0.00 | 92 | 1017.2 |
| 20260906121506 | 71 | 51 | 0.0 | 0.9 | 0.00 | 0.00 | 0.00 | 92 | 1017.1 |
| 20260906121006 | 70 | 51 | 0.0 | 0.9 | 0.00 | 0.00 | 0.00 | 93 | 1017.0 |
| 20260906120506 | 70 | 51 | 0.0 | 0.9 | 0.00 | 0.00 | 0.00 | 93 | 1017.0 |
| 20260906120006 | 70 | 51 | 0.0 | 0.9 | 0.00 | 0.00 | 0.00 | 93 | 1016.6 |
| 20260906115506 | 70 | 51 | 0.0 | 0.9 | 0.00 | 0.00 | 0.00 | 93 | 1016.6 |
| 20260906115007 | 69 | 51 | 0.0 | 0.9 | 0.00 | 0.00 | 0.00 | 93 | 1016.6 |
| 20260906114506 | 69 | 51 | 0.0 | 0.9 | 0.00 | 0.00 | 0.00 | 93 | 1016.6 |
| 20260906114007 | 69 | 51 | 0.0 | 0.9 | 0.00 | 0.00 | 0.00 | 92 | 1016.5 |
| 20260906113506 | 69 | 51 | 0.0 | 0.0 | 0.00 | 0.00 | 0.00 | 92 | 1016.5 |
| 20260906113006 | 69 | 51 | 0.0 | 0.0 | 0.00 | 0.00 | 0.00 | 92 | 1016.5 |
| 20260906112517 | 69 | 51 | 0.0 | 0.0 | 0.00 | 0.00 | 0.00 | 92 | 1016.3 |
| 20260906112007 | 70 | 51 | 0.0 | 0.0 | 0.00 | 0.00 | 0.00 | 92 | 1016.3 |
| 20260906111506 | 70 | 51 | 0.0 | 0.0 | 0.00 | 0.00 | 0.00 | 92 | 1016.2 |
| 20260906111007 | 70 | 51 | 0.0 | 0.9 | 0.00 | 0.00 | 0.00 | 92 | 1016.1 |
| 20260906110507 | 70 | 51 | 0.0 | 0.9 | 0.00 | 0.00 | 0.00 | 92 | 1016.1 |
| 20260906110006 | 70 | 51 | 0.0 | 0.9 | 0.00 | 0.00 | 0.00 | 92 | 1016.1 |
| 20260906105506 | 70 | 51 | 0.0 | 0.9 | 0.00 | 0.00 | 0.00 | 92 | 1016.1 |
| 20260906105006 | 70 | 51 | 0.0 | 0.9 | 0.00 | 0.00 | 0.00 | 92 | 1015.8 |
| 20260906104506 | 70 | 51 | 0.0 | 0.9 | 0.00 | 0.00 | 0.00 | 92 | 1015.8 |
| 20260906104006 | 70 | 51 | 0.0 | 0.9 | 0.00 | 0.00 | 0.00 | 93 | 1015.8 |
| 20260906103506 | 70 | 51 | 0.0 | 0.0 | 0.00 | 0.00 | 0.00 | 93 | 1015.7 |
| 20260906103006 | 70 | 51 | 0.0 | 0.9 | 0.00 | 0.00 | 0.00 | 93 | 1015.7 |
| 20260906102507 | 70 | 51 | 0.0 | 0.9 | 0.00 | 0.00 | 0.00 | 93 | 1015.7 |
| 20260906102006 | 70 | 51 | 0.0 | 0.9 | 0.00 | 0.00 | 0.00 | 92 | 1015.6 |
| 20260906101506 | 70 | 51 | 0.0 | 0.9 | 0.00 | 0.00 | 0.00 | 93 | 1015.6 |
| 20260906101007 | 70 | 51 | 0.0 | 0.9 | 0.00 | 0.00 | 0.00 | 92 | 1015.6 |
| 20260906100507 | 70 | 51 | 0.0 | 0.0 | 0.00 | 0.00 | 0.00 | 92 | 1015.7 |
| 20260906100007 | 70 | 51 | 0.0 | 1.7 | 0.00 | 0.00 | 0.00 | 92 | 1015.4 |
| 20260906095506 | 70 | 51 | 0.0 | 1.7 | 0.00 | 0.00 | 0.00 | 92 | 1015.4 |
| 20260906095006 | 70 | 51 | 0.0 | 0.0 | 0.00 | 0.00 | 0.00 | 92 | 1015.4 |
| 20260906094506 | 70 | 51 | 0.0 | 0.0 | 0.00 | 0.00 | 0.00 | 93 | 1015.4 |
| 20260906094006 | 70 | 51 | 0.0 | 0.9 | 0.00 | 0.00 | 0.00 | 91 | 1015.4 |
| 20260906093506 | 70 | 51 | 0.0 | 0.9 | 0.00 | 0.00 | 0.00 | 91 | 1015.4 |
| 20260906093006 | 70 | 51 | 0.0 | 0.9 | 0.00 | 0.00 | 0.00 | 91 | 1015.4 |
| 20260906092506 | 70 | 51 | 0.0 | 0.0 | 0.00 | 0.00 | 0.00 | 91 | 1015.4 |
| 20260906092007 | 70 | 51 | 0.0 | 0.0 | 0.00 | 0.00 | 0.00 | 90 | 1015.4 |
| 20260906091506 | 70 | 51 | 0.0 | 0.0 | 0.00 | 0.00 | 0.00 | 90 | 1015.3 |
| 20260906091006 | 71 | 51 | 0.0 | 0.0 | 0.00 | 0.00 | 0.00 | 90 | 1015.3 |
| 20260906090507 | 71 | 51 | 0.0 | 0.9 | 0.00 | 0.00 | 0.00 | 90 | 1015.3 |
| 20260906090007 | 71 | 51 | 0.0 | 0.9 | 0.00 | 0.00 | 0.00 | 90 | 1015.3 |
| 20260906085506 | 71 | 51 | 0.0 | 0.9 | 0.00 | 0.00 | 0.00 | 89 | 1015.3 |
| 20260906085007 | 71 | 51 | 0.0 | 0.9 | 0.00 | 0.00 | 0.00 | 89 | 1015.3 |
| 20260906084506 | 71 | 51 | 0.0 | 0.9 | 0.00 | 0.00 | 0.00 | 89 | 1015.3 |
| 20260906084006 | 71 | 51 | 0.0 | 1.7 | 0.00 | 0.00 | 0.00 | 89 | 1015.3 |
| 20260906083506 | 71 | 51 | 0.0 | 1.7 | 0.00 | 0.00 | 0.00 | 89 | 1015.3 |
| 20260906083007 | 72 | 51 | 0.0 | 1.7 | 0.00 | 0.00 | 0.00 | 89 | 1015.3 |
| 20260906082506 | 72 | 51 | 0.0 | 1.7 | 0.00 | 0.00 | 0.00 | 89 | 1015.3 |
| 20260906082006 | 72 | 51 | 0.0 | 2.6 | 0.00 | 0.00 | 0.00 | 89 | 1015.3 |
| 20260906081506 | 72 | 51 | 0.9 | 2.6 | 0.00 | 0.00 | 0.00 | 89 | 1015.3 |
| 20260906081006 | 72 | 51 | 0.9 | 1.7 | 0.00 | 0.00 | 0.00 | 89 | 1015.4 |
| 20260906080506 | 72 | 51 | 0.0 | 1.7 | 0.00 | 0.00 | 0.00 | 89 | 1015.4 |
| 20260906080006 | 72 | 51 | 0.9 | 1.7 | 0.00 | 0.00 | 0.00 | 89 | 1015.4 |
| 20260906075507 | 72 | 51 | 0.0 | 1.7 | 0.00 | 0.00 | 0.00 | 88 | 1015.5 |
| 20260906075006 | 72 | 51 | 0.0 | 1.7 | 0.00 | 0.00 | 0.00 | 88 | 1015.6 |
| 20260906074506 | 72 | 51 | 0.9 | 1.7 | 0.00 | 0.00 | 0.00 | 88 | 1015.6 |
| 20260906074006 | 72 | 51 | 0.0 | 1.7 | 0.00 | 0.00 | 0.00 | 88 | 1015.6 |
| 20260906073506 | 72 | 51 | 0.0 | 0.9 | 0.00 | 0.00 | 0.00 | 88 | 1015.6 |
| 20260906073006 | 72 | 51 | 0.0 | 0.9 | 0.00 | 0.00 | 0.00 | 88 | 1015.5 |
| 20260906072506 | 72 | 51 | 0.0 | 2.6 | 0.00 | 0.00 | 0.00 | 87 | 1015.5 |
| 20260906072006 | 72 | 51 | 0.9 | 2.6 | 0.00 | 0.00 | 0.00 | 87 | 1015.5 |
| 20260906071515 | 73 | 51 | 0.9 | 1.7 | 0.00 | 0.00 | 0.00 | 87 | 1015.6 |
| 20260906071006 | 73 | 51 | 0.9 | 1.7 | 0.00 | 0.00 | 0.00 | 87 | 1015.6 |
| 20260906070507 | 73 | 51 | 0.9 | 2.6 | 0.00 | 0.00 | 0.00 | 87 | 1015.6 |
| 20260906070006 | 73 | 51 | 0.0 | 2.6 | 0.00 | 0.00 | 0.00 | 87 | 1015.6 |
| 20260906065506 | 73 | 51 | 0.0 | 2.6 | 0.00 | 0.00 | 0.00 | 86 | 1015.6 |
| 20260906065006 | 73 | 51 | 0.0 | 2.6 | 0.00 | 0.00 | 0.00 | 86 | 1015.6 |
| 20260906064506 | 73 | 51 | 0.9 | 2.6 | 0.00 | 0.00 | 0.00 | 86 | 1015.6 |
| 20260906064005 | 73 | 51 | 0.9 | 2.6 | 0.00 | 0.00 | 0.00 | 86 | 1015.6 |
| 20260906063506 | 74 | 51 | 0.9 | 2.6 | 0.00 | 0.00 | 0.00 | 85 | 1015.6 |
| 20260906063006 | 74 | 51 | 1.7 | 4.3 | 0.00 | 0.00 | 0.00 | 85 | 1015.6 |
| 20260906062506 | 74 | 13 | 1.7 | 4.3 | 0.00 | 0.00 | 0.00 | 85 | 1015.6 |
| 20260906062007 | 74 | 36 | 0.9 | 2.6 | 0.00 | 0.00 | 0.00 | 85 | 1015.6 |
| 20260906061506 | 74 | 32 | 0.9 | 2.6 | 0.00 | 0.00 | 0.00 | 85 | 1015.6 |
| 20260906061006 | 74 | 43 | 0.0 | 2.6 | 0.00 | 0.00 | 0.00 | 85 | 1015.6 |
| 20260906060507 | 74 | 43 | 0.9 | 2.6 | 0.00 | 0.00 | 0.00 | 84 | 1015.6 |
| 20260906060013 | 74 | 44 | 0.9 | 2.6 | 0.00 | 0.00 | 0.00 | 84 | 1015.6 |
| 20260906055513 | 74 | 44 | 0.9 | 5.2 | 0.00 | 0.00 | 0.00 | 84 | 1015.6 |
| 20260906055013 | 74 | 48 | 1.7 | 5.2 | 0.00 | 0.00 | 0.00 | 84 | 1015.5 |
| 20260906054513 | 74 | 26 | 0.9 | 2.6 | 0.00 | 0.00 | 0.00 | 84 | 1015.5 |
| 20260906054013 | 74 | 26 | 0.9 | 2.6 | 0.00 | 0.00 | 0.00 | 84 | 1015.5 |
| 20260906053513 | 74 | 26 | 0.9 | 2.6 | 0.00 | 0.00 | 0.00 | 84 | 1015.5 |
| 20260906053014 | 74 | 41 | 0.9 | 2.6 | 0.00 | 0.00 | 0.00 | 84 | 1015.5 |
| 20260906052513 | 74 | 44 | 0.9 | 2.6 | 0.00 | 0.00 | 0.00 | 84 | 1015.3 |
| 20260906052012 | 74 | 37 | 0.9 | 2.6 | 0.00 | 0.00 | 0.00 | 84 | 1015.3 |
| 20260906051513 | 74 | 32 | 1.7 | 4.3 | 0.00 | 0.00 | 0.00 | 84 | 1015.2 |
| 20260906051012 | 74 | 32 | 1.7 | 4.3 | 0.00 | 0.00 | 0.00 | 84 | 1015.1 |
| 20260906050513 | 75 | 52 | 0.9 | 6.1 | 0.00 | 0.00 | 0.00 | 84 | 1015.1 |
| 20260906050012 | 74 | 56 | 0.9 | 6.1 | 0.00 | 0.00 | 0.00 | 84 | 1015.1 |
| 20260906045513 | 74 | 40 | 2.6 | 5.2 | 0.00 | 0.00 | 0.00 | 83 | 1015.0 |
| 20260906045012 | 74 | 50 | 0.9 | 5.2 | 0.00 | 0.00 | 0.00 | 84 | 1014.9 |
| 20260906044513 | 75 | 45 | 1.7 | 2.6 | 0.00 | 0.00 | 0.00 | 84 | 1014.9 |
| 20260906044013 | 74 | 52 | 1.7 | 4.3 | 0.00 | 0.00 | 0.00 | 84 | 1014.9 |
| 20260906043514 | 75 | 28 | 0.9 | 4.3 | 0.00 | 0.00 | 0.00 | 84 | 1014.8 |
| 20260906043013 | 75 | 39 | 1.7 | 4.3 | 0.00 | 0.00 | 0.00 | 84 | 1014.8 |
| 20260906042513 | 75 | 32 | 0.9 | 4.3 | 0.00 | 0.00 | 0.00 | 83 | 1014.8 |
| 20260906042013 | 74 | 32 | 1.7 | 2.6 | 0.00 | 0.00 | 0.00 | 83 | 1014.7 |
| 20260906041513 | 74 | 68 | 0.9 | 2.6 | 0.00 | 0.00 | 0.00 | 84 | 1014.7 |
| 20260906041012 | 74 | 63 | 0.9 | 2.6 | 0.00 | 0.00 | 0.00 | 83 | 1014.6 |
| 20260906040513 | 74 | 63 | 1.7 | 2.6 | 0.00 | 0.00 | 0.00 | 83 | 1014.6 |
| 20260906040013 | 74 | 62 | 0.9 | 2.6 | 0.00 | 0.00 | 0.00 | 83 | 1014.6 |
| 20260906035513 | 74 | 76 | 0.0 | 2.6 | 0.00 | 0.00 | 0.00 | 84 | 1014.7 |
| 20260906035013 | 74 | 84 | 1.7 | 2.6 | 0.00 | 0.00 | 0.00 | 83 | 1014.7 |
| 20260906034513 | 74 | 51 | 0.9 | 1.7 | 0.00 | 0.00 | 0.00 | 83 | 1014.7 |
| 20260906034013 | 74 | 49 | 0.9 | 2.6 | 0.00 | 0.00 | 0.00 | 83 | 1014.6 |
| 20260906033513 | 74 | 49 | 0.9 | 2.6 | 0.00 | 0.00 | 0.00 | 83 | 1014.6 |
| 20260906033013 | 74 | 49 | 0.9 | 2.6 | 0.00 | 0.00 | 0.00 | 83 | 1014.6 |
| 20260906032512 | 74 | 49 | 0.9 | 4.3 | 0.00 | 0.00 | 0.00 | 83 | 1014.5 |
| 20260906032013 | 74 | 39 | 0.9 | 4.3 | 0.00 | 0.00 | 0.00 | 83 | 1014.6 |
| 20260906031512 | 74 | 26 | 1.7 | 4.3 | 0.00 | 0.00 | 0.00 | 83 | 1014.6 |
| 20260906031022 | 74 | 33 | 1.7 | 2.6 | 0.00 | 0.00 | 0.00 | 83 | 1014.6 |
| 20260906030513 | 74 | 40 | 0.9 | 6.1 | 0.00 | 0.00 | 0.00 | 83 | 1014.6 |
| 20260906030013 | 74 | 30 | 1.7 | 6.1 | 0.00 | 0.00 | 0.00 | 83 | 1014.6 |
| 20260906025513 | 74 | 15 | 2.6 | 6.1 | 0.00 | 0.00 | 0.00 | 83 | 1014.6 |
| 20260906025013 | 74 | 22 | 2.6 | 5.2 | 0.00 | 0.00 | 0.00 | 83 | 1014.6 |
| 20260906024513 | 74 | 66 | 1.7 | 7.0 | 0.00 | 0.00 | 0.00 | 83 | 1014.6 |
| 20260906024012 | 74 | 36 | 2.6 | 8.7 | 0.00 | 0.00 | 0.00 | 83 | 1014.8 |
| 20260906023513 | 74 | 50 | 2.6 | 8.7 | 0.00 | 0.00 | 0.00 | 83 | 1014.8 |
| 20260906023013 | 74 | 56 | 3.5 | 7.8 | 0.00 | 0.00 | 0.00 | 82 | 1014.8 |
| 20260906022512 | 74 | 47 | 3.5 | 7.8 | 0.00 | 0.00 | 0.00 | 82 | 1014.7 |
| 20260906022012 | 74 | 70 | 2.6 | 7.8 | 0.00 | 0.00 | 0.00 | 81 | 1014.7 |
| 20260906021512 | 74 | 46 | 2.6 | 7.8 | 0.00 | 0.00 | 0.00 | 81 | 1014.7 |
| 20260906021013 | 74 | 43 | 4.3 | 10.4 | 0.00 | 0.00 | 0.00 | 81 | 1014.6 |
| 20260906020514 | 74 | 59 | 3.5 | 10.4 | 0.00 | 0.00 | 0.00 | 80 | 1014.6 |
| 20260906020012 | 74 | 46 | 2.6 | 10.4 | 0.00 | 0.00 | 0.00 | 80 | 1014.5 |
| 20260906015512 | 74 | 53 | 4.3 | 8.7 | 0.00 | 0.00 | 0.00 | 80 | 1014.5 |
| 20260906015012 | 75 | 53 | 4.3 | 8.7 | 0.00 | 0.00 | 0.00 | 80 | 1014.3 |
| 20260906014513 | 75 | 50 | 2.6 | 7.8 | 0.00 | 0.00 | 0.00 | 81 | 1014.3 |
| 20260906014012 | 75 | 50 | 3.5 | 7.0 | 0.00 | 0.00 | 0.00 | 81 | 1014.3 |
| 20260906013513 | 75 | 49 | 1.7 | 7.0 | 0.00 | 0.00 | 0.00 | 82 | 1014.3 |
| 20260906013013 | 75 | 47 | 1.7 | 6.1 | 0.00 | 0.00 | 0.00 | 82 | 1014.3 |
| 20260906012512 | 75 | 40 | 3.5 | 7.0 | 0.00 | 0.00 | 0.00 | 82 | 1014.2 |
| 20260906012013 | 75 | 46 | 2.6 | 7.8 | 0.00 | 0.00 | 0.00 | 81 | 1014.2 |
| 20260906011514 | 75 | 51 | 2.6 | 7.8 | 0.00 | 0.00 | 0.00 | 81 | 1014.2 |
| 20260906011012 | 76 | 48 | 3.5 | 7.8 | 0.00 | 0.00 | 0.00 | 81 | 1014.1 |
| 20260906010513 | 76 | 42 | 2.6 | 8.7 | 0.00 | 0.00 | 0.00 | 81 | 1014.2 |
| 20260906010012 | 76 | 32 | 1.7 | 8.7 | 0.00 | 0.00 | 0.00 | 80 | 1014.0 |
| 20260906005513 | 77 | 44 | 2.6 | 8.7 | 0.00 | 0.00 | 0.00 | 80 | 1014.0 |
| 20260906005013 | 77 | 37 | 2.6 | 7.8 | 0.00 | 0.00 | 0.00 | 79 | 1014.0 |
| 20260906004512 | 77 | 27 | 1.7 | 6.1 | 0.00 | 0.00 | 0.00 | 79 | 1014.0 |
| 20260906004013 | 78 | 41 | 2.6 | 6.1 | 0.00 | 0.00 | 0.00 | 78 | 1013.8 |
| 20260906003513 | 78 | 40 | 1.7 | 6.1 | 0.00 | 0.00 | 0.00 | 78 | 1013.5 |
| 20260906003012 | 78 | 43 | 2.6 | 6.1 | 0.00 | 0.00 | 0.00 | 77 | 1013.5 |
| 20260906002513 | 78 | 34 | 2.6 | 8.7 | 0.00 | 0.00 | 0.00 | 76 | 1013.5 |
| 20260906002013 | 78 | 30 | 2.6 | 8.7 | 0.00 | 0.00 | 0.00 | 76 | 1013.4 |
| 20260906001512 | 79 | 33 | 1.7 | 4.3 | 0.00 | 0.00 | 0.00 | 77 | 1013.4 |
| 20260906001012 | 79 | 53 | 1.7 | 4.3 | 0.00 | 0.00 | 0.00 | 76 | 1013.1 |
| 20260906000513 | 79 | 56 | 1.7 | 4.3 | 0.00 | 0.00 | 0.00 | 76 | 1013.1 |
| 20260906000012 | 79 | 50 | 0.9 | 2.6 | 0.00 | 0.00 | 0.00 | 76 | 1013.1 |
| 20260905235512 | 80 | 35 | 0.9 | 1.7 | 0.00 | 0.00 | 0.00 | 75 | 1013.1 |
| 20260905235013 | 80 | 34 | 0.9 | 4.3 | 0.00 | 0.00 | 0.00 | 75 | 1013.1 |
| 20260905234513 | 80 | 34 | 0.9 | 4.3 | 0.00 | 0.00 | 0.00 | 74 | 1013.1 |
| 20260905234012 | 81 | 20 | 1.7 | 4.3 | 0.00 | 0.00 | 0.00 | 73 | 1013.2 |
| 20260905233513 | 81 | 41 | 0.9 | 2.6 | 0.00 | 0.00 | 0.00 | 74 | 1013.3 |
| 20260905233013 | 81 | 55 | 0.9 | 2.6 | 0.00 | 0.00 | 0.00 | 73 | 1013.3 |
| 20260905232513 | 81 | 55 | 0.9 | 7.0 | 0.00 | 0.00 | 0.00 | 73 | 1013.1 |
| 20260905232013 | 81 | 55 | 0.9 | 7.0 | 0.00 | 0.00 | 0.00 | 73 | 1013.1 |
| 20260905231513 | 82 | 36 | 1.7 | 6.1 | 0.00 | 0.00 | 0.00 | 72 | 1013.2 |
| 20260905231012 | 82 | 52 | 2.6 | 6.1 | 0.00 | 0.00 | 0.00 | 71 | 1013.2 |
| 20260905230512 | 82 | 56 | 1.7 | 6.1 | 0.00 | 0.00 | 0.00 | 72 | 1013.2 |
| 20260905230013 | 82 | 36 | 1.7 | 6.1 | 0.00 | 0.00 | 0.00 | 74 | 1013.0 |
| 20260905225512 | 82 | 52 | 0.9 | 2.6 | 0.00 | 0.00 | 0.00 | 74 | 1013.0 |
| 20260905225012 | 81 | 68 | 0.9 | 10.4 | 0.00 | 0.00 | 0.00 | 74 | 1013.0 |
| 20260905224512 | 82 | 40 | 1.7 | 10.4 | 0.00 | 0.00 | 0.00 | 72 | 1012.8 |
| 20260905224013 | 82 | 33 | 1.7 | 6.1 | 0.00 | 0.00 | 0.00 | 72 | 1012.8 |
| 20260905223513 | 82 | 37 | 1.7 | 6.1 | 0.00 | 0.00 | 0.00 | 73 | 1012.8 |
| 20260905223013 | 82 | 42 | 2.6 | 8.7 | 0.00 | 0.00 | 0.00 | 72 | 1013.0 |
| 20260905222513 | 83 | 60 | 2.6 | 8.7 | 0.00 | 0.00 | 0.00 | 72 | 1013.1 |
| 20260905222012 | 82 | 54 | 2.6 | 7.8 | 0.00 | 0.00 | 0.00 | 73 | 1012.9 |
| 20260905221512 | 83 | 40 | 3.5 | 8.7 | 0.00 | 0.00 | 0.00 | 71 | 1012.9 |
| 20260905221013 | 83 | 42 | 3.5 | 8.7 | 0.00 | 0.00 | 0.00 | 71 | 1012.8 |
| 20260905220513 | 84 | 56 | 3.5 | 8.7 | 0.00 | 0.00 | 0.00 | 71 | 1012.9 |
| 20260905220012 | 84 | 32 | 2.6 | 11.3 | 0.00 | 0.00 | 0.00 | 70 | 1012.8 |
| 20260905215512 | 85 | 57 | 4.3 | 11.3 | 0.00 | 0.00 | 0.00 | 70 | 1012.8 |
| 20260905215012 | 86 | 37 | 4.3 | 8.7 | 0.00 | 0.00 | 0.00 | 68 | 1012.7 |
| 20260905214513 | 86 | 24 | 2.6 | 8.7 | 0.00 | 0.00 | 0.00 | 69 | 1012.7 |
| 20260905214013 | 86 | 16 | 3.5 | 8.7 | 0.00 | 0.00 | 0.00 | 69 | 1012.7 |
| 20260905213512 | 86 | 359 | 2.6 | 8.7 | 0.00 | 0.00 | 0.00 | 68 | 1012.5 |
| 20260905213012 | 86 | 356 | 2.6 | 10.4 | 0.00 | 0.00 | 0.00 | 68 | 1012.5 |
| 20260905212512 | 87 | 26 | 3.5 | 10.4 | 0.00 | 0.00 | 0.00 | 68 | 1012.5 |
| 20260905212012 | 87 | 40 | 4.3 | 8.7 | 0.00 | 0.00 | 0.00 | 68 | 1012.4 |
| 20260905211512 | 87 | 12 | 2.6 | 8.7 | 0.00 | 0.00 | 0.00 | 69 | 1012.4 |
| 20260905211012 | 86 | 66 | 2.6 | 6.1 | 0.00 | 0.00 | 0.00 | 70 | 1012.4 |
| 20260905210512 | 86 | 30 | 2.6 | 8.7 | 0.00 | 0.00 | 0.00 | 71 | 1012.4 |
| 20260905210012 | 85 | 32 | 1.7 | 8.7 | 0.00 | 0.00 | 0.00 | 70 | 1012.4 |
| 20260905205513 | 85 | 28 | 0.9 | 7.0 | 0.00 | 0.00 | 0.00 | 72 | 1012.5 |
| 20260905205012 | 85 | 33 | 2.6 | 7.0 | 0.00 | 0.00 | 0.00 | 71 | 1012.4 |
| 20260905204512 | 86 | 60 | 1.7 | 7.0 | 0.00 | 0.00 | 0.00 | 70 | 1012.4 |
| 20260905204012 | 86 | 49 | 3.5 | 7.0 | 0.00 | 0.00 | 0.00 | 70 | 1012.4 |
| 20260905203512 | 87 | 1 | 2.6 | 7.8 | 0.00 | 0.00 | 0.00 | 67 | 1012.6 |
| 20260905203013 | 88 | 71 | 2.6 | 7.8 | 0.00 | 0.00 | 0.00 | 68 | 1012.6 |
| 20260905202513 | 88 | 49 | 2.6 | 8.7 | 0.00 | 0.00 | 0.00 | 67 | 1012.5 |
| 20260905202013 | 89 | 29 | 2.6 | 8.7 | 0.00 | 0.00 | 0.00 | 65 | 1012.5 |
| 20260905201512 | 89 | 313 | 2.6 | 8.7 | 0.00 | 0.00 | 0.00 | 65 | 1012.6 |
| 20260905201013 | 90 | 35 | 4.3 | 7.0 | 0.00 | 0.00 | 0.00 | 65 | 1012.3 |
| 20260905200512 | 90 | 349 | 1.7 | 7.8 | 0.00 | 0.00 | 0.00 | 64 | 1012.3 |
| 20260905200012 | 90 | 339 | 2.6 | 7.8 | 0.00 | 0.00 | 0.00 | 65 | 1012.3 |
| 20260905195512 | 90 | 31 | 2.6 | 7.0 | 0.00 | 0.00 | 0.00 | 66 | 1012.3 |
| 20260905195013 | 90 | 63 | 2.6 | 7.0 | 0.00 | 0.00 | 0.00 | 68 | 1012.4 |
| 20260905194512 | 89 | 43 | 1.7 | 7.0 | 0.00 | 0.00 | 0.00 | 68 | 1012.4 |
| 20260905194013 | 89 | 39 | 2.6 | 7.0 | 0.00 | 0.00 | 0.00 | 68 | 1012.4 |
| 20260905193512 | 89 | 26 | 1.7 | 7.0 | 0.00 | 0.00 | 0.00 | 67 | 1012.4 |
| 20260905193013 | 90 | 38 | 0.9 | 4.3 | 0.00 | 0.00 | 0.00 | 66 | 1012.4 |
| 20260905192513 | 90 | 352 | 1.7 | 7.8 | 0.00 | 0.00 | 0.00 | 64 | 1012.4 |
| 20260905192013 | 91 | 1 | 2.6 | 7.8 | 0.00 | 0.00 | 0.00 | 64 | 1012.4 |
| 20260905191512 | 91 | 303 | 1.7 | 6.1 | 0.00 | 0.00 | 0.00 | 64 | 1012.5 |
| 20260905191013 | 91 | 1 | 2.6 | 7.8 | 0.00 | 0.00 | 0.00 | 62 | 1012.6 |
| 20260905190523 | 91 | 16 | 1.7 | 7.8 | 0.00 | 0.00 | 0.00 | 64 | 1012.6 |
| 20260905190012 | 91 | 352 | 1.7 | 7.0 | 0.00 | 0.00 | 0.00 | 65 | 1012.6 |
| 20260905185512 | 91 | 7 | 1.7 | 6.1 | 0.00 | 0.00 | 0.00 | 65 | 1012.7 |
| 20260905185013 | 91 | 356 | 1.7 | 7.0 | 0.00 | 0.00 | 0.00 | 66 | 1012.7 |
| 20260905184513 | 90 | 15 | 2.6 | 7.0 | 0.00 | 0.00 | 0.00 | 66 | 1012.7 |
| 20260905184013 | 90 | 6 | 2.6 | 6.1 | 0.00 | 0.00 | 0.00 | 67 | 1012.7 |
| 20260905183514 | 90 | 19 | 1.7 | 4.3 | 0.00 | 0.00 | 0.00 | 66 | 1012.7 |
| 20260905183012 | 90 | 0 | 1.7 | 4.3 | 0.00 | 0.00 | 0.00 | 68 | 1012.8 |
| 20260905182512 | 90 | 351 | 0.9 | 7.0 | 0.00 | 0.00 | 0.00 | 69 | 1012.8 |
| 20260905182013 | 89 | 355 | 2.6 | 7.0 | 0.00 | 0.00 | 0.00 | 68 | 1012.8 |
| 20260905181513 | 88 | 357 | 1.7 | 4.3 | 0.00 | 0.00 | 0.00 | 70 | 1012.8 |
| 20260905181012 | 88 | 32 | 1.7 | 4.3 | 0.00 | 0.00 | 0.00 | 70 | 1012.8 |
| 20260905180512 | 88 | 44 | 0.0 | 4.3 | 0.00 | 0.00 | 0.00 | 70 | 1012.8 |
| 20260905180012 | 89 | 25 | 2.6 | 4.3 | 0.00 | 0.00 | 0.00 | 69 | 1012.8 |
| 20260905175512 | 89 | 57 | 0.9 | 5.2 | 0.00 | 0.00 | 0.00 | 70 | 1012.7 |
| 20260905175013 | 89 | 43 | 2.6 | 5.2 | 0.00 | 0.00 | 0.00 | 71 | 1012.8 |
| 20260905174513 | 89 | 340 | 1.7 | 2.6 | 0.00 | 0.00 | 0.00 | 70 | 1012.8 |
| 20260905174013 | 89 | 22 | 0.9 | 6.1 | 0.00 | 0.00 | 0.00 | 71 | 1012.9 |
| 20260905173512 | 88 | 317 | 1.7 | 6.1 | 0.00 | 0.00 | 0.00 | 70 | 1012.9 |
| 20260905173013 | 88 | 352 | 2.6 | 5.2 | 0.00 | 0.00 | 0.00 | 72 | 1012.9 |
| 20260905172512 | 88 | 36 | 2.6 | 5.2 | 0.00 | 0.00 | 0.00 | 73 | 1012.9 |
| 20260905172013 | 88 | 21 | 1.7 | 5.2 | 0.00 | 0.00 | 0.00 | 72 | 1012.8 |
| 20260905171512 | 87 | 27 | 1.7 | 7.0 | 0.00 | 0.00 | 0.00 | 73 | 1013.0 |
| 20260905171013 | 87 | 78 | 1.7 | 7.0 | 0.00 | 0.00 | 0.00 | 73 | 1013.1 |
| 20260905170513 | 87 | 38 | 1.7 | 5.2 | 0.00 | 0.00 | 0.00 | 76 | 1013.3 |
| 20260905170013 | 87 | 31 | 0.9 | 5.2 | 0.00 | 0.00 | 0.00 | 76 | 1013.3 |
| 20260905165513 | 86 | 41 | 1.7 | 5.2 | 0.00 | 0.00 | 0.00 | 75 | 1013.2 |
| 20260905165013 | 86 | 13 | 0.9 | 4.3 | 0.00 | 0.00 | 0.00 | 75 | 1013.3 |
| 20260905164512 | 86 | 42 | 1.7 | 6.1 | 0.00 | 0.00 | 0.00 | 75 | 1013.3 |
| 20260905164012 | 87 | 31 | 1.7 | 6.1 | 0.00 | 0.00 | 0.00 | 74 | 1013.2 |
| 20260905163513 | 87 | 40 | 1.7 | 6.1 | 0.00 | 0.00 | 0.00 | 76 | 1013.2 |
| 20260905163013 | 86 | 24 | 1.7 | 6.1 | 0.00 | 0.00 | 0.00 | 76 | 1013.2 |
| 20260905162512 | 86 | 28 | 1.7 | 5.2 | 0.00 | 0.00 | 0.00 | 76 | 1013.4 |
| 20260905162012 | 86 | 31 | 1.7 | 7.0 | 0.00 | 0.00 | 0.00 | 76 | 1013.4 |
| 20260905161514 | 86 | 29 | 2.6 | 7.0 | 0.00 | 0.00 | 0.00 | 77 | 1013.4 |
| 20260905161013 | 86 | 35 | 3.5 | 7.0 | 0.00 | 0.00 | 0.00 | 76 | 1013.2 |
| 20260905160513 | 86 | 36 | 3.5 | 7.0 | 0.00 | 0.00 | 0.00 | 75 | 1013.2 |
| 20260905160021 | 86 | 52 | 2.6 | 6.1 | 0.00 | 0.00 | 0.00 | 77 | 1013.0 |
| 20260905155513 | 86 | 45 | 2.6 | 6.1 | 0.00 | 0.00 | 0.00 | 78 | 1012.9 |
| 20260905155012 | 86 | 56 | 1.7 | 4.3 | 0.00 | 0.00 | 0.00 | 80 | 1012.9 |
| 20260905154513 | 86 | 335 | 1.7 | 7.0 | 0.00 | 0.00 | 0.00 | 79 | 1012.8 |
| 20260905154013 | 85 | 13 | 2.6 | 7.0 | 0.00 | 0.00 | 0.00 | 79 | 1012.9 |
| 20260905153513 | 85 | 67 | 2.6 | 4.3 | 0.00 | 0.00 | 0.00 | 80 | 1012.9 |
| 20260905153012 | 85 | 45 | 0.9 | 4.3 | 0.00 | 0.00 | 0.00 | 79 | 1012.9 |
| 20260905152512 | 85 | 35 | 1.7 | 4.3 | 0.00 | 0.00 | 0.00 | 80 | 1012.9 |
| 20260905152012 | 85 | 58 | 0.9 | 7.0 | 0.00 | 0.00 | 0.00 | 79 | 1012.8 |
| 20260905151512 | 85 | 66 | 1.7 | 7.8 | 0.00 | 0.00 | 0.00 | 79 | 1012.8 |
| 20260905151013 | 85 | 28 | 1.7 | 7.8 | 0.00 | 0.00 | 0.00 | 79 | 1012.6 |
| 20260905150512 | 85 | 37 | 2.6 | 7.8 | 0.00 | 0.00 | 0.00 | 81 | 1012.6 |
| 20260905150013 | 85 | 59 | 1.7 | 4.3 | 0.00 | 0.00 | 0.00 | 81 | 1012.6 |
| 20260905145512 | 84 | 30 | 1.7 | 5.2 | 0.00 | 0.00 | 0.00 | 81 | 1012.6 |
| 20260905145013 | 84 | 41 | 1.7 | 6.1 | 0.00 | 0.00 | 0.00 | 83 | 1012.6 |
| 20260905144513 | 84 | 46 | 1.7 | 6.1 | 0.00 | 0.00 | 0.00 | 83 | 1012.6 |
| 20260905144013 | 84 | 42 | 1.7 | 4.3 | 0.00 | 0.00 | 0.00 | 84 | 1012.5 |
| 20260905143512 | 83 | 49 | 1.7 | 2.6 | 0.00 | 0.00 | 0.00 | 84 | 1012.5 |
| 20260905143013 | 83 | 42 | 0.9 | 2.6 | 0.00 | 0.00 | 0.00 | 84 | 1012.5 |
| 20260905142512 | 83 | 32 | 1.7 | 2.6 | 0.00 | 0.00 | 0.00 | 84 | 1012.5 |
| 20260905142012 | 83 | 14 | 1.7 | 2.6 | 0.00 | 0.00 | 0.00 | 85 | 1012.4 |
| 20260905141512 | 83 | 23 | 0.9 | 2.6 | 0.00 | 0.00 | 0.00 | 85 | 1012.4 |
| 20260905141013 | 82 | 22 | 0.9 | 2.6 | 0.00 | 0.00 | 0.00 | 86 | 1012.4 |
| 20260905140512 | 82 | 19 | 0.9 | 2.6 | 0.00 | 0.00 | 0.00 | 86 | 1012.3 |
| 20260905140012 | 82 | 11 | 0.9 | 2.6 | 0.00 | 0.00 | 0.00 | 86 | 1012.3 |
| 20260905135512 | 82 | 19 | 1.7 | 2.6 | 0.00 | 0.00 | 0.00 | 87 | 1012.3 |
| 20260905135013 | 81 | 22 | 1.7 | 4.3 | 0.00 | 0.00 | 0.00 | 87 | 1012.6 |
| 20260905134513 | 81 | 311 | 0.9 | 4.3 | 0.00 | 0.00 | 0.00 | 88 | 1012.6 |
| 20260905134012 | 81 | 25 | 0.9 | 2.6 | 0.00 | 0.00 | 0.00 | 88 | 1012.7 |
| 20260905133513 | 80 | 326 | 0.9 | 4.3 | 0.00 | 0.00 | 0.00 | 89 | 1012.8 |
| 20260905133012 | 80 | 311 | 0.9 | 4.3 | 0.00 | 0.00 | 0.00 | 90 | 1012.7 |
| 20260905132512 | 80 | 271 | 0.0 | 4.3 | 0.00 | 0.00 | 0.00 | 90 | 1012.7 |
| 20260905132012 | 79 | 287 | 2.6 | 4.3 | 0.00 | 0.00 | 0.00 | 91 | 1012.7 |
| 20260905131513 | 79 | 305 | 1.7 | 4.3 | 0.00 | 0.00 | 0.00 | 92 | 1012.2 |
| 20260905131012 | 79 | 298 | 2.6 | 4.3 | 0.00 | 0.00 | 0.00 | 92 | 1012.2 |
| 20260905130513 | 78 | 248 | 0.9 | 2.6 | 0.00 | 0.00 | 0.00 | 93 | 1012.2 |
| 20260905130012 | 78 | 233 | 1.7 | 2.6 | 0.00 | 0.00 | 0.00 | 94 | 1012.2 |
| 20260905125515 | 78 | 231 | 0.9 | 2.6 | 0.00 | 0.00 | 0.00 | 94 | 1012.1 |
| 20260905125012 | 77 | 188 | 0.9 | 2.6 | 0.00 | 0.00 | 0.00 | 95 | 1011.6 |
| 20260905124512 | 77 | 187 | 0.9 | 2.6 | 0.00 | 0.00 | 0.00 | 95 | 1011.6 |